Location: �quirre
(50.4736°N, 2.2351°E)
Time: 10:43:23
(UTC+00:00)

ATLAS 3B R/B - Pass Details

Date: 07 August 2020
Orbit: 1016 x 1179 km, 63.8° (Epoch: 17 September)

Event Time Altitude Azimuth Distance (km) Brightness Sun altitude
Exits shadow 01:40:58 10° 263° (W) 2,776 4.6 -19.4°
Maximum altitude 01:47:02 40° 331° (NNW) 1,476 3.7 -19.0°
Drops below altitude 10° 01:53:20 10° 40° (NE) 2,866 6.2 -18.5°
Sets 01:56:12 0° 48° (NE) 3,844 7.0 -18.2°
